{"data":{"norad_id":66012,"epoch":"2026-05-25T04:45:17.428032Z","epoch_age_seconds":53961,"freshness":"FRESH","line1":"1 66012U 25232H   26145.19811838  .00018938  00000+0  64973-3 0  9996","line2":"2 66012  53.1569 108.2288 0001345  90.3660 269.7494 15.30208495 35154","mean_motion":15.30208495,"eccentricity":0.0001345,"inclination_deg":53.1569,"raan_deg":108.2288,"arg_perigee_deg":90.366,"mean_anomaly_deg":269.7494,"bstar":0.00064973,"rev_number":3515,"period_min":94.104823277693,"perigee_km":474.26793255608,"apogee_km":476.11147743972,"semimajor_km":6853.3267049979,"source":"CELESTRAK","updated_at":"2026-05-25T13:38:21.014741Z"}}